Content
SEND FEEDBACK

Daily
Averages
Monthly
Summary
United States of America

RIVERHEAD, NEW YORK


Home > North America > United States > New York
Elevation: 67 feet     Latitude: 40 50N     Longitude: 072 37W

WEATHER
 
SELECT A DAY
Number of Records: 202,008;   Date Range: 1/1/95 - 8/12/14
 
SHARE

PRINT THIS DATA

[ ← Previous Day ]
WEATHER ALMANAC - JANUARY 31, 2013
[ Next Day → ]
[ °C ]   °F
Weather ElementAverageHighLow
Temperature49.8 °F57.2 °F (2:13 am)30 °F (11:53 pm)
Dewpoint38.7 °F55.4 °F (5:38 am)9 °F (11:53 pm)
Humidity70.3 %94 % (5:01 am)30 % (2:53 pm)
Barometer29.32 in29.76 in (11:53 pm)29.12 in (6:53 am)
Wind Speed20.7 mph28.8 mph (8:00 am)
Wind Gust54.1 mph (8:00 am)
Weather ElementAverage
Visibility6.8 mi
Wind DirectionSW (226.3 °)

Weather ElementTotal
Precipitation1.80 in
Heating Degree Days21.4 (Base 65)
Averaged from 41 records on January 31, 2013
WEATHER CONDITIONS BREAKOUT
WIND DIRECTION BREAKOUT
WEATHER BY HOUR - JANUARY 31, 2013
[ °C ]   °F
Local TimeTemperatureDewpointHumidityBarometerVisibilityWind DirectionWind SpeedGust SpeedPrecipitationEventsConditions
1:41 AM55.4 °F51.8 °F88 %29.39 in7.0 miSouth (180°)17.3 mph34.5 mphOvercast
1:53 AM57.0 °F53.1 °F87 %29.38 in7.0 miSouth (180°)18.4 mph32.2 mphOvercast
2:13 AM57.2 °F51.8 °F82 %29.36 in7.0 miSouth (180°)18.4 mph36.8 mphOvercast
2:53 AM55.9 °F52.0 °F87 %29.31 in6.0 miSouth (180°)19.6 mph33.4 mph0.00 inOvercast
3:33 AM55.4 °F51.8 °F88 %29.25 in6.0 miSouth (180°)21.9 mph32.2 mph0.00 inRainLight Rain
3:53 AM55.9 °F53.1 °F90 %29.22 in6.0 miSouth (180°)18.4 mph33.4 mph0.00 inRainLight Rain
4:53 AM55.9 °F54.0 °F93 %29.15 in3.0 miSouth (180°)20.7 mph38.0 mph0.06 inRainRain
5:01 AM55.4 °F53.6 °F94 %29.13 in2.0 miSouth (170°)21.9 mph42.6 mph0.04 inRainHeavy Rain
5:10 AM57.2 °F53.6 °F88 %29.14 in1.8 miSouth (180°)25.3 mph40.3 mph0.10 inRainHeavy Rain
5:25 AM57.2 °F53.6 °F88 %29.14 in2.0 miSouth (190°)26.5 mph43.7 mph0.18 inRainRain
5:38 AM57.2 °F55.4 °F94 %29.19 in1.2 miSW (220°)24.2 mph46.0 mph0.37 inRainHeavy Rain
5:45 AM57.2 °F55.4 °F94 %29.19 in3.0 miSSW (210°)24.2 mph44.9 mph0.38 inRainRain
5:53 AM55.0 °F53.1 °F93 %29.18 in5.0 miSW (220°)19.6 mph38.0 mph0.39 inRainLight Rain
6:09 AM53.6 °F51.8 °F94 %29.17 in4.0 miSSW (210°)11.5 mph25.3 mph0.02 inRainLight Rain
6:16 AM53.6 °F51.8 °F94 %29.19 in5.0 miSSW (210°)17.3 mph26.5 mph0.02 inRainLight Rain
6:26 AM53.6 °F51.8 °F94 %29.17 in4.0 miSSW (210°)16.1 mph29.9 mph0.05 inRainRain
6:48 AM53.6 °F51.8 °F94 %29.15 in6.0 miSSW (200°)18.4 mph26.5 mph0.07 inRainLight Rain
6:53 AM53.1 °F51.1 °F93 %29.12 in5.0 miSSW (200°)12.7 mph27.6 mph0.08 inRainLight Rain
7:13 AM53.6 °F51.8 °F94 %29.13 in2.5 miSouth (190°)17.3 mph33.4 mph0.01 inRainLight Rain
7:15 AM53.6 °F51.8 °F94 %29.13 in2.5 miSSW (200°)18.4 mph33.4 mph0.01 inRainLight Rain
7:44 AM51.8 °F50.0 °F94 %29.13 in2.5 miSSW (210°)15.0 mph31.1 mph0.01 inMostly Cloudy
7:53 AM52.0 °F48.9 °F89 %29.14 in2.5 miSSW (200°)18.4 mph28.8 mph0.01 inOvercast
8:00 AM51.8 °F48.2 °F88 %29.15 in7.0 miSW (230°)28.8 mph54.1 mphOvercast
8:08 AM51.8 °F48.2 °F88 %29.15 in9.0 miWSW (240°)28.8 mph44.9 mphMostly Cloudy
8:16 AM51.8 °F46.4 °F82 %29.16 in10.0 miWSW (250°)21.9 mph40.3 mphMostly Cloudy
8:53 AM51.1 °F37.9 °F61 %29.20 in10.0 miWest (260°)16.1 mph29.9 mphOvercast
9:53 AM51.1 °F30.9 °F46 %29.26 in10.0 miWest (280°)25.3 mph40.3 mphPartly Cloudy
10:53 AM50.0 °F28.0 °F43 %29.32 in10.0 miWest (270°)25.3 mph43.7 mphClear
11:53 AM50.0 °F24.1 °F36 %29.35 in10.0 miWest (270°)26.5 mph39.1 mphClear
12:53 PM48.0 °F21.9 °F36 %29.39 in10.0 miWest (260°)23.0 mph35.7 mphScattered Clouds
1:53 PM48.0 °F19.0 °F32 %29.42 in10.0 miWest (280°)20.7 mph34.5 mphPartly Cloudy
2:53 PM46.9 °F17.1 °F30 %29.45 in10.0 miWSW (250°)27.6 mph38.0 mphPartly Cloudy
3:53 PM45.0 °F16.0 °F31 %29.48 in10.0 miWest (280°)24.2 mph32.2 mphClear
4:53 PM43.0 °F17.1 °F35 %29.53 in10.0 miWest (270°)18.4 mph32.2 mphScattered Clouds
5:53 PM39.9 °F12.0 °F32 %29.59 in10.0 miWest (260°)21.9 mph36.8 mphPartly Cloudy
6:53 PM37.9 °F14.0 °F38 %29.63 in10.0 miWest (260°)23.0 mph29.9 mphPartly Cloudy
7:53 PM35.1 °F10.9 °F37 %29.68 in10.0 miWest (270°)24.2 mph34.5 mphClear
8:53 PM34.0 °F10.9 °F38 %29.70 in10.0 miWest (260°)19.6 mph27.6 mphClear
9:53 PM33.1 °F10.9 °F40 %29.73 in10.0 miWest (270°)18.4 mph28.8 mphClear
10:53 PM32.0 °F10.9 °F42 %29.74 in10.0 miWest (270°)18.4 mph27.6 mphClear
11:53 PM30.0 °F9.0 °F41 %29.76 in10.0 miWest (270°)15.0 mphClear
Hourly data recorded from KFOK, located miles away from Riverhead, New York







STORIES FROM OUR PARTNERS